Temperature
19 19 19 19 19 19 19 19 19 19 19 19 19 19 19 19 19 19 19 19 19 19 19 19 19 19 19 19 19 19 18 18 18 18 18 18 18 18 18 18 18 18 18
20 19 19 19 19 19 19 19 19 19 19 19 19 19 19 19 19 19 19 19 19 19 18 19 19 19 19 19 19 18 18 18 18 18 18 18 18 18 18 18 18 18 18
20 20 19 19 19 19 19 19 19 19 19 19 19 19 19 19 19 19 19 19 19 19 18 18 18 18 18 19 19 18 18 18 18 18 18 18 18 18 18 18 18 18 18
20 20 19 19 19 19 19 19 19 19 19 19 19 19 19 19 19 19 19 19 19 19 18 18 18 18 18 18 18 18 18 18 18 18 18 18 18 18 18 18 18 18 18
20 20 19 19 19 19 19 19 19 19 19 19 19 19 19 19 19 19 19 19 19 18 18 18 18 18 18 18 18 18 18 18 18 18 18 18 18 18 18 18 18 18 18
20 20 20 19 19 19 19 19 19 19 19 19 19 19 19 19 19 19 19 19 18 18 18 18 18 18 18 18 18 18 18 18 18 18 18 18 18 18 18 18 18 18 18
20 20 20 19 19 19 19 19 19 19 19 19 19 19 19 19 19 19 19 18 18 18 18 18 18 18 18 18 18 18 18 18 18 18 18 18 18 18 18 18 18 18 18
20 20 20 19 19 19 19 19 19 19 19 19 19 19 19 19 19 19 19 18 18 18 18 18 18 18 18 18 18 18 18 18 18 18 18 18 18 18 18 18 18 18 18
20 20 20 20 19 19 19 19 19 19 19 19 19 19 19 19 19 19 19 18 18 18 18 18 18 18 18 18 18 18 18 18 18 18 18 18 18 18 18 18 18 18 18
20 20 20 20 19 19 19 19 19 19 19 19 19 19 19 19 19 19 19 18 18 18 18 18 18 18 18 18 18 18 18 18 18 18 18 18 18 18 18 18 18 18 18
20 20 20 20 19 19 19 19 19 19 19 19 19 19 19 19 19 18 18 18 18 18 18 18 18 18 18 18 18 18 18 18 18 18 18 18 18 18 18 18 18 18 18
20 20 20 20 19 19 19 19 19 19 19 19 19 19 19 19 19 18 18 18 18 18 18 18 18 18 18 18 18 18 18 18 18 18 18 18 18 18 18 18 18 18 18
20 20 20 20 20 19 19 19 19 19 19 19 19 19 19 19 19 18 18 18 18 18 18 18 18 18 18 18 18 18 18 18 18 18 18 18 18 18 18 18 18 18 18
20 20 20 20 20 20 20 20 19 19 19 19 19 19 19 19 19 18 18 18 18 18 18 18 18 18 18 18 18 18 18 18 18 18 18 18 18 18 18 17 17 17 17
21 21 20 20 20 20 20 20 19 19 19 19 19 19 19 19 19 19 18 18 18 18 18 18 18 18 18 18 18 18 18 18 18 18 18 18 17 17 17 17 17 17 17
21 21 21 20 20 20 20 20 20 19 19 19 19 19 19 19 19 19 18 18 18 18 18 18 18 18 18 18 18 18 18 18 18 18 17 17 17 17 17 17 17 17 17
21 21 21 20 20 20 20 20 20 20 19 19 19 19 19 19 19 19 18 18 18 18 18 18 18 18 18 18 18 18 18 18 18 18 17 17 17 17 17 17 17 17 17
21 21 21 21 20 20 20 20 20 19 19 19 19 19 19 19 19 19 18 18 18 18 18 18 18 18 18 18 18 18 18 18 18 18 17 17 17 17 17 17 17 17 17
21 21 21 21 21 20 20 20 20 20 19 19 19 19 19 19 19 19 18 18 18 18 18 18 18 18 18 18 18 18 18 17 18 18 17 17 17 17 17 17 17 17 17
21 21 21 21 21 20 20 20 20 19 19 19 19 19 19 19 19 19 18 18 18 18 18 18 18 18 18 18 18 18 17 18 18 17 17 17 17 17 17 17 17 17 17
21 21 21 21 21 21 20 20 20 20 20 19 19 19 19 19 19 19 18 18 18 18 18 18 18 18 18 17 17 17 17 17 17 17 17 17 17 17 17 17 17 17 17
22 22 21 21 21 21 21 20 20 20 20 19 19 19 19 19 19 18 18 18 18 18 18 18 18 18 17 17 17 17 17 17 17 17 17 17 17 17 17 17 17 16 16
22 22 21 21 21 21 21 20 20 20 20 19 19 19 19 19 19 19 18 18 18 18 18 18 17 17 17 17 17 17 17 17 17 17 17 17 17 17 17 17 16 16 16
22 22 21 21 21 21 21 20 20 20 20 20 19 19 19 19 19 18 18 18 18 18 18 18 17 17 17 17 17 17 17 17 16 16 17 17 16 16 16 16 16 16 16
22 22 22 21 21 21 20 20 20 20 20 19 19 19 19 19 19 18 18 18 18 18 18 17 17 17 17 17 17 17 17 17 16 16 16 16 16 16 16 16 16 16 16
22 22 22 21 21 21 20 20 20 20 20 19 19 19 19 19 19 18 18 18 18 18 17 17 17 17 17 17 17 17 17 16 16 16 16 16 16 16 16 16 16 16 16
Wind_Speed
2 2 5 6 7 7 8 9 11 11 12 12 12 13 14 15 15 15 15 15 15 14 15 15 14 14 14 14 14 13 13 13 13 13 12 12 12 12 12 12 12 11 12
4 4 6 7 7 7 8 9 10 11 12 12 13 13 14 14 14 14 15 15 14 14 14 14 13 13 13 13 13 13 12 12 12 12 12 11 12 12 12 12 11 10 12
5 5 7 7 7 7 8 9 10 11 12 12 13 13 13 14 14 14 14 14 14 13 13 13 13 13 13 12 12 12 11 11 11 11 10 9 10 12 12 12 11 11 12
6 5 6 7 8 8 9 9 10 10 11 12 12 13 13 13 13 13 13 13 13 13 13 12 12 12 12 11 11 11 10 11 11 10 8 7 8 11 11 11 11 11 11
5 5 6 8 8 8 9 9 9 10 10 11 11 12 12 12 12 12 12 12 11 11 12 11 11 11 11 11 11 10 10 10 9 8 6 6 7 10 11 11 11 11 11
4 5 6 8 8 8 9 9 9 10 10 10 10 10 11 11 11 11 10 10 10 10 10 10 10 10 10 9 10 9 9 9 8 7 6 6 6 9 10 11 10 10 10
4 4 5 8 8 8 8 8 9 9 9 9 9 9 10 10 9 9 9 9 9 9 9 9 9 9 9 8 8 8 8 9 7 6 5 5 6 8 9 10 10 9 9
5 4 4 7 7 7 8 8 8 8 8 8 8 8 8 8 8 8 8 8 8 8 9 8 8 8 8 8 8 7 7 7 7 6 5 5 6 7 8 9 10 9 9
4 3 3 4 5 6 6 6 7 7 7 7 7 7 7 7 7 7 7 7 8 8 8 8 7 7 7 7 6 6 6 7 6 5 5 5 6 7 8 9 10 10 9
3 2 2 2 3 3 4 5 5 6 6 6 6 6 6 6 5 5 6 6 7 7 7 7 7 6 7 6 6 6 6 6 5 6 4 5 7 7 9 10 10 10 9
2 1 1 1 2 2 2 3 3 4 4 4 4 4 4 3 3 3 4 5 5 6 6 6 6 6 5 5 5 6 6 4 5 4 4 6 7 7 8 9 10 9 9
3 3 1 1 1 1 2 2 2 3 3 3 3 3 3 2 2 2 2 3 4 4 4 4 4 5 4 3 4 4 4 5 5 4 5 6 7 7 8 8 9 9 9
4 3 3 2 1 1 1 2 2 2 2 2 2 2 2 2 2 2 1 1 1 1 1 1 1 2 2 2 3 3 4 4 4 4 5 6 7 7 7 8 8 9 9
4 4 3 2 2 1 1 1 1 1 1 1 2 2 3 2 1 1 1 1 1 0 1 0 1 1 2 2 3 4 4 4 4 4 5 6 7 7 7 7 7 8 8
5 4 4 3 3 2 1 1 1 1 1 2 2 2 3 2 1 1 0 0 0 0 1 1 1 1 2 2 2 3 3 3 4 5 5 6 7 7 7 6 6 7 7
6 5 4 4 4 3 2 1 1 1 1 2 1 2 3 3 2 1 0 0 0 0 1 1 1 1 1 1 1 2 3 3 4 4 4 5 6 6 7 6 6 6 5
7 5 5 5 4 3 3 2 1 1 2 1 1 2 3 3 3 2 1 0 1 1 2 2 2 2 1 1 0 1 2 3 3 4 4 4 4 5 6 6 6 5 5
6 6 5 5 5 4 3 2 1 1 2 1 2 2 2 3 3 3 2 1 1 2 2 2 2 2 1 1 0 1 1 1 3 3 3 4 3 4 5 6 5 5 5
7 6 6 5 5 5 4 3 2 1 1 1 2 1 2 2 3 3 2 1 1 2 1 2 2 2 1 1 0 0 0 1 2 2 3 3 4 4 4 5 5 5 6
7 6 6 6 5 5 3 2 1 1 0 1 1 1 2 2 3 3 2 1 2 2 1 1 2 2 1 1 1 1 1 1 1 1 2 2 3 4 4 4 4 5 6
6 6 6 6 5 4 3 3 2 1 1 0 1 1 2 2 3 3 2 2 2 2 2 2 2 2 1 1 2 2 2 2 1 0 1 1 2 2 3 3 4 3 4
8 7 7 7 6 5 4 3 2 2 1 1 1 0 1 2 3 3 3 2 2 2 2 2 2 2 1 1 2 1 2 2 2 2 1 1 1 1 2 3 3 3 3
7 8 8 7 6 5 5 3 3 2 2 1 1 0 1 1 2 2 3 3 2 2 2 2 2 2 1 1 1 2 1 1 2 2 2 1 0 0 1 1 2 2 3
9 8 7 6 6 5 6 5 5 4 3 3 2 1 0 0 1 2 2 3 3 2 2 2 2 2 3 1 1 1 1 2 1 1 2 2 1 1 1 1 1 2 3
8 7 7 6 5 5 6 7 6 4 3 2 1 1 0 0 0 1 2 2 2 2 2 2 2 2 2 2 2 1 1 1 1 1 1 2 2 2 1 1 1 2 2
6 6 6 7 6 5 6 6 7 6 5 3 2 2 1 0 1 0 1 2 2 2 2 2 2 3 2 2 2 2 2 2 2 2 2 1 2 2 1 1 1 1 2
Wind_Direction
186 186 143 123 115 112 110 109 111 112 115 118 120 124 130 134 137 138 138 137 137 136 134 134 135 136 138 137 137 137 136 138 139 140 142 143 143 141 142 141 138 138 138
157 159 141 126 119 116 115 114 113 114 116 118 120 123 128 132 135 137 138 138 138 137 136 136 139 138 138 137 140 140 140 142 143 145 145 145 146 146 146 146 145 142 143
135 146 143 131 123 117 115 116 118 117 119 121 122 123 125 129 133 135 138 140 140 140 139 138 139 138 139 139 139 143 144 146 147 147 147 146 149 150 148 150 149 147 146
135 137 139 131 125 119 115 116 117 119 121 123 124 125 126 129 133 134 136 138 140 141 140 140 140 139 140 141 143 144 146 148 148 148 148 151 154 155 153 154 153 152 151
123 129 144 132 128 124 119 118 117 119 122 123 123 125 127 130 133 133 133 135 140 142 143 144 144 143 143 143 145 145 145 146 148 145 141 147 152 158 159 158 158 157 156
120 130 146 135 133 129 125 120 119 119 122 123 124 126 128 132 133 133 134 135 139 141 143 147 147 146 146 147 149 149 150 149 144 139 139 149 159 168 166 163 161 160 160
129 129 145 137 132 130 129 127 124 121 122 126 127 128 131 133 137 139 140 142 144 145 144 147 150 150 152 155 156 157 158 154 145 143 150 160 169 173 172 169 167 166 167
130 125 140 142 135 132 131 134 132 127 125 128 130 131 132 135 140 145 148 150 152 153 153 155 157 158 158 159 161 164 166 165 157 157 160 167 174 177 179 175 173 174 176
112 112 118 138 145 139 136 138 137 133 129 128 133 137 138 139 141 146 152 157 159 161 162 165 167 166 164 163 166 170 173 175 158 164 172 178 192 193 190 184 178 176 178
96 95 104 115 120 130 141 144 142 137 133 132 133 137 135 136 141 150 159 162 164 168 171 177 183 179 176 174 176 177 175 174 161 168 178 191 202 202 198 191 187 184 186
135 100 95 100 107 119 137 154 142 131 123 125 129 134 123 118 131 150 170 174 176 176 179 186 188 185 180 179 177 173 170 160 157 169 186 200 206 209 204 196 193 194 196
186 194 179 171 135 120 150 126 109 107 99 98 100 105 105 108 122 136 163 185 185 181 187 191 182 180 181 168 176 176 159 159 166 182 201 207 207 210 209 204 201 202 205
188 191 195 186 166 138 94 100 98 104 98 92 95 107 107 96 79 77 67 42 19 179 188 201 210 176 172 167 169 175 171 169 177 197 210 212 209 207 210 209 205 205 208
169 195 200 186 170 168 132 105 110 110 105 107 108 117 117 104 82 78 87 47 26 342 105 95 153 147 148 170 173 176 185 190 191 196 210 211 205 204 209 211 209 208 207
178 190 193 181 182 176 150 174 132 133 148 145 129 139 141 133 128 130 143 86 224 214 157 151 140 136 147 163 177 176 187 203 204 202 214 214 205 204 208 215 218 216 212
189 193 186 180 180 165 166 172 156 160 157 139 146 165 169 165 163 150 129 43 355 171 142 129 135 134 152 155 173 185 198 207 210 209 214 217 212 209 210 213 214 213 211
191 188 184 184 173 171 183 185 165 161 148 147 186 179 176 181 181 167 156 184 216 167 127 104 87 94 115 126 191 230 220 214 204 203 207 209 215 218 213 209 212 214 217
186 186 191 185 174 179 179 178 161 147 145 165 182 181 189 187 179 159 157 194 177 139 130 122 105 105 104 115 286 272 243 213 209 203 203 210 213 218 217 212 212 218 228
191 186 183 186 178 181 177 167 157 128 143 175 177 178 198 187 177 158 152 157 131 120 131 145 115 127 133 127 187 315 303 225 222 209 209 212 213 217 219 221 220 227 234
189 187 185 187 186 172 156 138 113 88 85 143 168 190 188 179 165 153 140 129 124 115 107 119 111 98 117 133 85 30 358 311 223 213 223 218 218 217 220 225 233 239 236
180 184 187 185 183 161 148 155 160 196 213 197 199 203 194 180 161 146 136 118 116 121 126 120 120 100 75 84 79 25 9 17 32 264 241 235 231 216 209 221 231 240 245
186 190 189 187 180 175 171 163 154 151 167 190 212 179 202 188 172 158 143 136 131 125 107 103 110 112 78 78 112 85 9 1 15 31 42 214 230 201 209 213 214 217 226
194 196 198 192 182 179 164 134 114 88 60 54 18 297 275 198 173 155 149 144 137 140 144 132 132 136 142 78 93 134 143 237 326 360 12 22 3 215 227 216 220 222 219
201 193 191 185 180 174 163 161 160 165 182 204 207 211 273 173 162 167 154 144 140 144 148 157 143 154 150 155 87 91 148 164 170 328 343 357 359 301 260 247 259 253 238
195 186 182 176 180 176 174 177 174 174 185 182 168 153 165 359 235 186 158 142 139 145 153 152 140 144 152 160 165 153 127 105 157 177 278 321 339 315 287 259 266 273 264
183 179 174 174 188 186 182 181 181 180 178 170 187 195 205 239 286 246 155 149 158 159 166 168 154 150 158 154 156 160 164 171 185 183 216 265 300 312 326 298 268 270 271
Height
1507 1507 1507 1507 1508 1507 1507 1507 1507 1507 1508 1508 1509 1509 1510 1512 1514 1516 1518 1520 1522 1524 1526 1528 1529 1531 1533 1535 1537 1539 1540 1542 1543 1545 1546 1548 1549 1551 1552 1553 1554 1555 1557
1507 1508 1508 1509 1509 1508 1508 1509 1509 1509 1510 1510 1511 1511 1512 1514 1516 1518 1520 1521 1523 1525 1527 1529 1531 1533 1535 1536 1538 1540 1542 1543 1545 1546 1548 1549 1550 1552 1553 1554 1555 1556 1558
1509 1509 1509 1510 1510 1510 1510 1510 1511 1511 1512 1512 1513 1514 1515 1516 1518 1520 1521 1523 1525 1527 1529 1531 1533 1535 1536 1538 1540 1541 1543 1544 1546 1547 1549 1550 1551 1553 1554 1555 1556 1557 1558
1510 1511 1511 1511 1512 1512 1512 1512 1513 1513 1514 1515 1515 1516 1517 1518 1520 1522 1523 1525 1527 1529 1531 1533 1534 1536 1538 1539 1541 1543 1544 1546 1547 1548 1550 1551 1552 1553 1554 1556 1557 1558 1559
1512 1512 1513 1513 1513 1514 1514 1515 1515 1515 1516 1517 1517 1518 1519 1521 1522 1524 1525 1527 1529 1531 1532 1534 1536 1538 1539 1541 1542 1544 1545 1547 1548 1549 1551 1552 1553 1554 1555 1556 1557 1558 1559
1513 1514 1515 1515 1515 1516 1516 1517 1517 1517 1518 1518 1519 1520 1521 1523 1524 1525 1527 1528 1530 1532 1534 1536 1537 1539 1540 1542 1543 1545 1546 1547 1549 1550 1551 1553 1554 1555 1556 1557 1558 1559 1560
1515 1516 1516 1517 1517 1518 1518 1518 1519 1520 1520 1521 1521 1522 1523 1524 1526 1527 1529 1530 1532 1533 1535 1537 1538 1540 1541 1543 1544 1546 1547 1548 1549 1551 1552 1553 1554 1555 1556 1557 1558 1559 1560
1517 1518 1518 1519 1520 1520 1520 1521 1521 1522 1522 1523 1524 1524 1525 1526 1527 1529 1530 1531 1533 1535 1536 1538 1539 1541 1542 1544 1545 1546 1548 1549 1550 1551 1552 1553 1555 1556 1557 1557 1558 1559 1560
1519 1520 1520 1521 1522 1522 1523 1523 1523 1524 1524 1525 1526 1526 1527 1528 1529 1530 1531 1532 1534 1535 1537 1539 1540 1541 1543 1544 1546 1547 1548 1549 1550 1551 1552 1553 1554 1555 1556 1558 1558 1559 1560
1521 1522 1522 1523 1524 1524 1524 1525 1525 1526 1526 1527 1527 1528 1529 1529 1530 1531 1532 1534 1535 1536 1538 1539 1540 1542 1543 1545 1546 1547 1548 1549 1550 1551 1552 1553 1554 1555 1556 1557 1558 1559 1560
1522 1523 1524 1525 1525 1526 1527 1527 1527 1528 1528 1529 1529 1530 1530 1531 1532 1533 1534 1535 1535 1537 1538 1539 1540 1542 1543 1545 1546 1547 1548 1549 1550 1551 1552 1553 1554 1555 1556 1557 1558 1559 1560
1522 1524 1525 1526 1527 1528 1528 1529 1529 1529 1530 1530 1531 1531 1532 1532 1533 1534 1534 1535 1536 1537 1538 1539 1540 1542 1543 1544 1545 1547 1548 1549 1550 1551 1552 1553 1554 1554 1555 1556 1557 1558 1559
1524 1525 1526 1527 1528 1529 1529 1530 1530 1531 1531 1532 1532 1532 1533 1533 1534 1534 1535 1535 1536 1537 1538 1539 1540 1541 1543 1544 1545 1546 1547 1548 1549 1550 1551 1552 1553 1554 1554 1556 1556 1557 1558
1524 1526 1527 1528 1529 1530 1531 1531 1531 1532 1532 1532 1533 1533 1534 1534 1534 1535 1535 1536 1537 1538 1538 1539 1540 1541 1542 1544 1545 1546 1547 1548 1548 1549 1550 1551 1552 1553 1553 1554 1555 1556 1557
1525 1526 1528 1529 1530 1531 1531 1532 1532 1533 1533 1533 1534 1534 1535 1535 1535 1536 1536 1537 1537 1538 1538 1539 1540 1541 1542 1543 1544 1545 1546 1546 1547 1548 1549 1550 1550 1551 1552 1553 1554 1555 1556
1525 1527 1528 1529 1530 1531 1532 1533 1533 1534 1534 1534 1535 1535 1535 1536 1536 1536 1537 1537 1538 1538 1539 1539 1540 1541 1541 1542 1543 1544 1544 1545 1546 1547 1548 1549 1549 1550 1551 1552 1552 1553 1554
1525 1527 1528 1530 1531 1532 1533 1533 1534 1535 1535 1535 1536 1536 1536 1537 1537 1537 1537 1538 1538 1539 1539 1539 1540 1540 1541 1542 1543 1543 1544 1544 1544 1545 1546 1547 1548 1549 1549 1550 1551 1552 1553
1526 1527 1529 1530 1531 1532 1533 1534 1535 1535 1536 1536 1536 1537 1537 1537 1538 1538 1538 1538 1539 1539 1539 1539 1540 1540 1541 1542 1542 1542 1543 1543 1543 1544 1545 1546 1546 1547 1548 1549 1549 1550 1551
1526 1527 1529 1530 1531 1532 1533 1534 1535 1536 1536 1536 1537 1537 1537 1538 1538 1538 1538 1538 1539 1539 1539 1540 1540 1540 1541 1541 1541 1542 1542 1542 1542 1543 1544 1545 1545 1546 1547 1547 1548 1548 1549
1525 1527 1528 1530 1531 1532 1533 1534 1535 1535 1536 1536 1537 1537 1537 1538 1538 1538 1538 1538 1539 1539 1539 1540 1540 1540 1540 1541 1541 1541 1541 1541 1542 1542 1543 1544 1544 1545 1545 1546 1546 1547 1547
1524 1526 1527 1528 1530 1531 1532 1533 1534 1535 1535 1536 1537 1537 1537 1538 1538 1538 1538 1538 1538 1539 1539 1539 1540 1540 1540 1540 1540 1541 1541 1541 1541 1541 1542 1542 1543 1544 1544 1545 1545 1545 1545
1522 1524 1526 1527 1529 1530 1531 1533 1534 1535 1535 1536 1537 1537 1537 1537 1538 1538 1538 1538 1538 1538 1538 1539 1539 1539 1539 1540 1540 1540 1540 1541 1540 1541 1541 1541 1542 1542 1543 1543 1544 1544 1544
1520 1522 1524 1526 1528 1529 1531 1532 1533 1534 1534 1535 1536 1536 1537 1537 1537 1537 1537 1537 1537 1537 1537 1538 1538 1539 1539 1539 1540 1540 1540 1540 1540 1540 1540 1540 1540 1541 1541 1541 1542 1542 1542
1518 1520 1523 1525 1527 1528 1530 1531 1531 1532 1533 1533 1534 1535 1535 1536 1536 1536 1536 1536 1536 1536 1536 1537 1537 1537 1538 1538 1538 1539 1540 1539 1539 1539 1540 1539 1539 1539 1539 1539 1539 1540 1540
1516 1519 1521 1523 1525 1527 1528 1529 1530 1531 1531 1532 1533 1533 1534 1535 1535 1535 1535 1535 1535 1535 1535 1536 1536 1536 1536 1537 1537 1538 1538 1538 1538 1538 1537 1538 1538 1538 1538 1538 1538 1538 1538
1514 1516 1519 1521 1523 1525 1526 1527 1528 1529 1529 1530 1531 1532 1533 1533 1533 1534 1534 1534 1534 1534 1534 1535 1535 1535 1535 1536 1536 1536 1537 1537 1537 1536 1536 1536 1536 1536 1536 1536 1536 1536 1536